Regional Weather Roundup
Issued by NWS

Home | Current Version | Previous Version | Text Only | Print | Product List | Glossary On
Versions: 1 2 3 4 5 6 7 8 9 10 11 12 13 14 15 16 17 18 19 20 21 22 23 24 25 26 27 28 29 30 31 32 33 34 35 36 37 38 39 40 41 42 43 44 45 46 47 48 49 50
000
ASCA44 KEWX 231820
RWRMX

LATIN AMERICA AND CARIBBEAN REGIONAL WEATHER ROUNDUP
NATIONAL WEATHER SERVICE AUSTIN/SAN ANTONIO TX
1200 PM CST MON JAN 23 2017

NOTE: "FAIR" INDICATED FEW OR NO CLOUDS BELOW 12,000 FEET WITH NO
SIGNIFICANT WEATHER AND/OR OBSTRUCTIONS TO VISIBILITY.

BAJA CALIFORNIA

CITY           SKY/WX    TMP DP  RH WIND       PRES   REMARKS
LORETO         SUNNY     73  50  43 CALM      29.99F
LA PAZ         SUNNY     72  54  53 NW10      30.02F
MEXICALI       MOSUNNY   61  39  44 W10       29.92S
S.J. DEL CABO  SUNNY     84  28  13 NW10      29.96
TIJUANA        HVY RAIN  52  45  76 NW18      30.01R

NORTHWESTERN MEXICO

CITY           SKY/WX    TMP DP  RH WIND       PRES   REMARKS
CULIACAN       SUNNY     75  52  43 N3        29.92F
DURANGO        SUNNY     64  18  16 CALM      30.33F
GUAYMAS        SUNNY     70  50  49 CALM      29.97S
HERMOSILLO     SUNNY     68  43  40 SE6       30.04S
CD. JUAREZ     MOSUNNY   59  39  47 SW5       30.01F
LOS MOCHIS     SUNNY     73  52  46 CALM      29.96F
OBREGON        SUNNY     72  50  46 CALM      29.96F

NORTHEASTERN MEXICO

CITY           SKY/WX    TMP DP  RH WIND       PRES   REMARKS
CHIHUAHUA      SUNNY     72  32  23 S9        30.16R
MATAMOROS      SUNNY     73  34  23 CALM      30.08F
MONCLOVA       SUNNY     75  39  27 W5        30.08F
MONTERREY      SUNNY     72  19  14 SE7       30.08F
NUEVO LAREDO   SUNNY     75  23  14 S7        30.06F
PIEDRAS NEGRAS   N/A    N/A N/A N/A MISG        N/A
REYNOSA        SUNNY     73  23  15 W5        30.07F
SALTILLO       SUNNY     75  37  25 S7        30.27S
TORREON        SUNNY     66  30  26 CALM      30.22
CD. VICTORIA   SUNNY     75  36  23 CALM      30.11F

WESTERN MEXICO

CITY           SKY/WX    TMP DP  RH WIND       PRES   REMARKS
AGUASCALIENTES SUNNY     72  14  11 NE9       30.31F
COLIMA         SUNNY     79  43  27 W9        30.01F
DEL BAJIO      SUNNY     72  18  13 S5        30.32F
GUADALAJARA    SUNNY     72  14  11 N8        30.22F
MANZANILLO     MOSUNNY   81  72  74 SE17      29.87
MAZATLAN       SUNNY     79  54  41 W6        29.89F
P. VALLARTA    SUNNY     73  61  64 SW7       29.98R
URUAPAN          N/A    N/A N/A N/A MISG        N/A
ZACATECAS      SUNNY     64  25  22 N12       30.35

CENTRAL MEXICO

CITY           SKY/WX    TMP DP  RH WIND       PRES   REMARKS
CUERNAVACA     SUNNY     77  30  18 SE7       30.15F
MEXICO CITY    SUNNY     66  19  16 E5        30.35F
MORELIA        SUNNY     66  25  20 N7        30.28F
POZA RICA      SUNNY     81  73  78 CALM      30.15F
PUEBLA         SUNNY     72  14  11 E3        30.32F
QUERETARO      SUNNY     68  28  22 SE2       30.34F
S. LUIS POTOSI SUNNY     66  12  12 NW6       30.30
TAMPICO        SUNNY     77  46  33 CALM      30.10F
TOLUCA         SUNNY     63  21  20 CALM      30.40

SOUTHERN MEXICO

CITY           SKY/WX    TMP DP  RH WIND       PRES   REMARKS
ACAPULCO       SUNNY     84  70  61 S6        29.93F
B. DE HUATULCO MOSUNNY   84  70  61 W6        29.98F
OAXACA         SUNNY     73  43  33 S6        30.23F
P. ESCONDIDO   MOSUNNY   84  70  61 S8        30.02F
VERACRUZ       MOSUNNY   81  63  54 E3        30.11F
ZIHUATANEJO    SUNNY     86  68  54 S9        29.93

YUCATAN PENINSULA

CITY           SKY/WX    TMP DP  RH WIND       PRES   REMARKS
CAMPECHE       MOSUNNY   77  63  61 NW12G23   30.01F
CANCUN         SUNNY     81  57  44 NW10      29.92F
CHETUMAL       SUNNY     81  57  44 W14       29.98F
CD. DEL CARMEN MOSUNNY   81  57  44 NW6       30.07F
COZUMEL        MOSUNNY   81  63  54 NW14      29.91F
MERIDA         MOSUNNY   81  57  44 NW18      30.00F
MINATITLAN     MOSUNNY   79  68  69 N12       30.10R
TAPACHULA      MOSUNNY   90  72  55 W7        29.89F HX  96
TUX. GUTIERREZ SUNNY     84  34  16 W6        30.02F
VILLAHERMOSA   MOSUNNY   79  61  53 W8        30.11F

CENTRAL AMERICA

CITY           SKY/WX    TMP DP  RH WIND       PRES   REMARKS
BELIZE CITY    MOSUNNY   81  66  61 NW13      29.98F
MANAGUA        PTCLDY    86  72  62 N7        29.89S HX  92

CARIBBEAN

CITY           SKY/WX    TMP DP  RH WIND       PRES   REMARKS
ARUBA          MOSUNNY   84  73  70 E10       29.89F HX  91
CURACAO        MOSUNNY   84  72  65 E8        29.92F
KINGSTON       MOSUNNY   84  68  58 S12       29.86F
NASSAU         MOSUNNY   79  64  61 W22       29.62F
SAN JUAN       MOSUNNY   86  64  48 S8        29.90F
SANTO DOMINGO  MOSUNNY   86  68  54 SW12      29.89F
ST. CROIX      SUNNY     82  64  54 SE8       29.94F
ST. KITTS      MOSUNNY   82  68  61 SE9       29.92F
ST. MAARTEN    MOSUNNY   81  68  65 SE10      29.92F
ST. THOMAS     SUNNY     81  66  61 SE9       29.93F

$$




USA.gov is the U.S. government's official web portal to all federal, state and local government web resources and services.